Theta_e
307 307 306 306 305 305 304 304 305 307 308 308 308 308 308 309 309 310 310 310 311 311 312 311 312 312 311 311 311 311 310 310 309 308 309 309 308 308 308 307 306 306 306
308 307 307 306 306 306 306 305 306 305 306 307 307 308 307 308 308 308 308 309 310 310 310 311 311 310 310 309 309 309 310 309 309 309 308 309 308 307 306 307 307 307 308
307 307 307 307 306 306 306 305 305 305 306 307 308 308 307 305 306 308 308 308 308 308 308 309 309 309 308 307 307 308 309 308 308 309 309 307 307 307 308 308 309 309 309
309 308 307 308 308 306 306 306 306 306 307 307 307 307 306 304 306 307 307 307 308 308 308 309 308 307 306 306 309 309 309 309 310 310 310 310 309 309 309 309 309 309 309
308 308 308 309 308 308 308 308 308 306 306 307 307 307 305 304 305 307 307 307 308 308 309 309 309 309 309 309 308 308 309 309 311 311 311 310 309 309 309 310 310 310 309
308 309 310 310 308 308 309 309 308 308 307 307 307 307 307 307 307 307 306 306 307 308 309 309 309 308 308 307 307 306 307 308 309 309 310 309 308 307 307 309 311 311 309
309 310 310 309 310 310 310 307 307 309 309 308 308 308 309 309 309 309 308 308 308 308 309 309 309 310 310 309 309 310 309 309 310 310 310 308 307 308 309 310 310 311 310
309 310 310 309 308 309 307 309 311 311 311 309 308 309 309 309 309 308 307 307 307 308 308 309 310 310 310 310 310 310 309 310 309 309 308 308 308 310 311 311 311 310 311
309 310 310 308 307 309 310 311 311 311 311 309 308 309 309 309 310 311 311 311 309 307 307 308 308 309 309 309 309 310 310 310 311 312 311 312 311 311 311 311 311 310 309
310 311 310 310 310 311 312 312 311 308 308 309 309 308 309 311 311 311 311 311 310 310 308 309 309 309 309 310 311 311 312 312 312 311 311 311 313 313 312 310 310 310 311
311 311 310 310 310 310 311 311 311 311 312 311 311 310 310 309 310 310 310 310 311 311 309 310 311 311 311 310 310 310 310 310 311 312 312 311 312 312 312 309 309 310 311
311 312 311 311 309 308 306 310 311 311 311 311 311 309 309 310 311 310 309 310 309 309 309 310 310 310 311 310 310 309 309 309 310 310 309 309 310 309 309 310 310 307 307
312 311 311 310 310 309 306 302 308 310 310 309 310 308 308 308 310 310 309 311 311 310 310 310 310 310 310 310 310 308 308 308 308 309 308 308 308 306 306 307 306 306 306
312 312 312 312 312 312 310 306 303 304 306 307 308 307 306 306 306 308 308 309 310 310 310 309 309 309 309 308 308 307 306 307 307 307 306 307 307 306 305 305 303 303 304
313 312 311 311 311 312 311 310 307 306 304 300 299 300 300 300 300 304 307 307 309 309 308 308 308 308 308 308 308 306 305 306 306 305 305 305 304 304 303 303 302 301 302
311 311 312 312 312 313 312 312 310 307 305 303 301 301 298 300 303 304 303 306 306 307 307 307 307 307 307 307 307 306 305 304 305 304 304 303 303 303 302 302 301 301 301
311 312 312 312 313 313 313 312 311 308 307 304 302 305 305 301 303 305 305 304 304 304 305 305 305 305 305 305 305 305 304 303 303 303 304 302 301 301 302 301 301 300 300
312 311 310 312 313 312 311 310 309 308 307 306 303 304 306 305 304 304 305 305 304 303 302 303 304 304 304 303 303 303 303 302 302 302 303 302 301 301 300 301 300 300 300
311 309 310 311 311 311 310 309 309 308 308 307 306 304 306 306 303 302 301 301 301 303 302 302 302 302 302 302 302 302 302 301 301 301 301 301 300 300 300 300 300 300 299
311 312 312 313 312 309 309 309 309 308 308 307 306 304 306 306 304 302 301 300 300 300 301 301 301 302 302 301 301 301 299 296 298 301 301 301 300 300 300 299 299 299 299
311 313 313 312 311 309 308 309 308 307 306 306 305 304 306 306 304 303 301 300 300 299 300 300 300 300 300 300 299 297 295 295 297 301 300 300 299 299 299 299 299 299 298
311 312 312 312 309 309 308 308 307 306 305 305 304 304 305 306 306 304 301 300 299 299 299 299 299 298 297 296 295 295 294 295 298 300 300 300 299 298 299 298 299 298 298
309 310 312 311 310 309 309 308 307 306 304 304 303 304 304 305 306 306 302 300 299 299 299 298 298 297 296 295 294 294 294 294 297 298 299 298 298 297 298 298 298 297 297
309 310 312 313 312 311 309 309 308 307 305 304 303 303 304 304 305 306 305 300 299 299 299 298 298 297 296 294 294 294 294 294 296 297 298 297 297 297 297 297 297 297 296
312 311 312 313 313 312 313 310 308 308 307 305 303 303 302 303 305 305 305 302 299 299 298 298 298 297 297 294 294 294 294 294 295 298 298 297 297 296 296 296 297 296 296
311 311 312 312 312 312 313 312 311 309 307 306 304 303 302 302 304 305 305 304 299 298 298 298 297 297 296 294 294 294 293 293 295 297 297 297 296 295 296 295 296 296 296
Wind_Speed
23 23 19 17 18 22 17 14 12 10 12 10 10 10 10 7 8 10 11 12 14 14 13 12 10 6 2 1 2 4 5 4 6 10 10 10 10 8 6 4 5 5 2
21 25 20 18 16 15 18 14 12 9 8 9 9 8 7 5 5 7 7 8 8 8 8 7 5 3 4 4 4 3 3 5 4 3 6 9 8 8 7 6 2 2 3
20 21 22 24 19 19 16 14 11 9 9 9 9 8 8 10 1 4 4 5 5 4 5 6 5 4 7 5 5 3 2 7 6 8 10 9 8 7 6 5 6 7 6
20 20 20 23 20 19 16 14 14 12 10 10 10 6 11 11 7 6 6 5 4 4 2 5 7 7 4 3 5 4 3 5 8 8 7 6 8 7 7 9 9 9 6
20 19 21 17 18 19 20 19 17 12 8 8 8 7 9 8 7 7 7 5 5 4 6 10 9 9 10 10 8 6 5 5 8 8 9 8 8 9 10 11 12 12 7
18 18 18 18 19 17 18 18 18 15 16 12 13 12 10 10 8 5 4 3 5 4 7 9 12 10 12 12 14 14 14 12 10 11 9 8 8 9 11 8 11 11 9
16 21 17 19 14 17 18 18 21 22 19 17 17 17 15 15 16 17 17 15 11 10 14 13 14 14 13 12 15 15 14 13 12 11 11 11 10 11 12 9 9 9 5
15 17 20 19 19 16 17 19 21 22 21 18 15 18 19 20 18 18 21 23 22 18 16 16 16 14 12 10 10 11 13 13 13 11 10 10 7 9 10 11 8 9 8
12 16 17 15 17 18 16 17 15 16 17 20 19 20 20 19 17 16 16 16 16 18 17 16 15 15 14 13 11 13 11 9 7 10 7 6 6 7 7 9 9 10 10
9 14 13 14 16 19 19 17 16 16 22 23 23 19 16 16 15 15 14 12 13 15 14 14 15 14 12 13 12 12 9 12 12 13 10 11 12 9 7 12 12 15 13
11 13 14 13 15 17 17 18 19 18 14 16 16 17 16 14 15 15 14 16 11 10 11 9 9 9 10 11 12 14 18 19 19 15 15 17 15 14 10 11 13 15 13
10 10 11 13 14 14 12 11 13 14 13 11 12 14 12 10 9 9 8 8 9 8 7 7 6 7 9 8 7 11 13 14 16 17 18 18 18 16 15 14 14 15 16
10 10 9 11 11 12 16 10 5 7 9 10 8 7 6 8 3 5 5 5 6 9 9 9 9 9 11 14 10 11 13 12 13 17 17 16 18 16 17 14 12 13 13
6 7 8 6 7 9 13 17 16 9 6 6 4 5 6 5 3 3 1 1 5 8 12 12 11 11 11 12 14 17 16 14 17 17 17 14 13 18 18 16 20 20 14
6 7 8 9 9 11 9 9 12 15 17 15 9 7 7 8 7 4 2 3 7 11 10 9 10 11 11 12 13 16 17 12 15 17 18 17 16 18 18 19 21 20 17
5 5 8 9 13 12 13 10 7 9 14 19 14 13 10 8 10 9 6 6 8 7 8 11 11 12 12 12 15 14 14 17 13 15 18 18 17 18 18 19 17 19 21
5 8 11 8 12 21 16 5 5 8 9 12 15 12 15 9 8 9 7 5 5 6 8 9 12 11 12 12 12 15 14 17 11 12 16 20 16 17 18 18 18 17 21
8 8 9 10 14 12 13 6 6 7 8 10 16 5 7 8 10 4 3 2 1 7 10 9 10 10 11 12 11 11 10 13 9 12 17 19 16 17 18 18 17 17 21
8 7 8 11 14 9 5 6 8 8 7 8 12 11 5 5 6 8 7 5 6 5 9 9 7 9 10 8 8 10 13 14 9 9 14 16 16 16 17 17 16 16 20
9 6 9 16 14 6 6 7 6 6 5 6 10 13 6 5 6 8 7 6 7 5 7 8 6 5 6 8 10 13 14 12 8 5 10 13 18 14 16 16 16 17 20
9 12 16 20 2 11 8 4 3 6 5 7 10 10 5 4 6 9 7 5 6 6 1 4 6 9 9 10 12 13 12 12 10 4 10 12 17 15 15 14 14 15 18
11 14 16 10 4 5 5 3 5 8 5 6 6 5 5 5 7 8 9 6 6 5 6 6 9 11 11 12 12 12 12 12 8 5 8 12 14 12 13 13 13 14 16
11 14 15 5 5 5 2 5 4 8 3 2 4 4 5 7 8 9 8 7 6 9 8 9 11 11 11 11 12 12 11 10 9 9 9 11 13 15 11 12 13 15 16
10 11 11 15 5 8 6 7 5 3 2 5 8 5 6 6 7 8 10 8 7 8 10 12 13 13 12 12 12 11 10 8 5 6 8 9 13 15 8 9 12 13 15
10 10 16 10 13 10 10 6 4 7 6 7 7 6 6 5 8 9 10 10 6 8 10 12 15 14 13 14 12 11 10 8 5 5 7 10 15 10 7 9 10 12 13
12 13 12 13 14 11 10 8 8 7 7 6 6 7 8 4 6 8 11 12 7 5 9 13 14 15 14 14 13 11 10 7 2 4 6 9 15 8 8 12 8 10 12
Wind_Direction
3 7 9 13 25 24 34 35 47 53 60 57 51 53 45 53 57 54 49 58 63 64 81 100 97 88 76 257 322 301 295 281 300 305 311 311 327 316 334 82 164 194 164
4 15 22 19 16 22 31 46 52 56 64 54 47 42 34 37 43 77 62 56 53 59 55 82 89 32 352 6 1 341 348 310 312 9 358 353 21 68 95 97 159 322 326
19 21 29 28 24 26 33 36 40 52 55 59 48 33 25 7 56 99 97 76 61 47 8 358 26 355 334 330 336 351 33 85 54 16 24 41 57 70 58 24 16 359 350
13 15 25 28 26 36 37 37 36 40 47 49 47 48 33 28 110 89 97 100 103 85 17 356 349 348 4 21 46 82 105 60 30 30 26 35 33 29 21 5 359 346 340
12 21 27 20 31 38 43 42 38 40 43 45 50 30 27 40 68 87 93 81 84 79 32 37 56 74 79 76 65 64 54 39 53 57 47 31 26 18 14 7 357 354 346
17 29 19 21 23 39 40 38 35 44 55 62 51 51 55 60 70 81 103 131 162 87 83 82 71 76 84 82 79 72 68 66 56 50 44 25 21 12 15 19 9 9 8
25 19 28 34 40 34 37 51 53 48 56 63 63 64 61 75 73 80 79 79 85 88 93 84 73 71 66 69 71 65 57 47 36 29 26 16 10 360 9 16 14 20 22
32 41 47 43 51 56 61 56 35 35 37 48 69 75 73 82 80 80 83 76 70 72 80 84 79 67 65 63 50 51 42 34 46 29 21 6 1 355 354 1 9 4 352
68 46 44 55 58 48 35 28 30 28 46 61 67 69 74 73 74 67 63 66 69 72 68 70 68 67 64 60 57 48 41 30 12 6 336 345 33 24 343 355 5 7 359
47 36 48 50 50 48 43 39 59 68 77 75 73 69 66 70 67 67 63 67 77 74 68 70 69 62 56 51 41 28 23 28 38 28 32 10 1 338 355 6 355 339 339
54 52 56 60 53 56 60 66 56 63 68 70 67 61 58 65 66 64 67 78 78 58 47 50 49 42 34 33 32 37 25 18 21 19 14 8 7 4 353 2 356 359 349
49 65 67 54 48 44 27 56 60 60 64 65 59 55 61 62 75 70 83 69 76 67 50 42 12 7 11 23 45 45 27 18 28 34 34 33 39 31 29 14 31 26 23
63 61 59 51 47 36 30 38 48 72 81 71 78 50 46 53 73 52 75 46 39 40 20 26 40 53 51 56 69 39 17 356 26 31 29 28 32 31 27 25 15 6 356
56 64 46 31 358 352 19 47 52 45 34 14 16 357 353 355 2 33 133 11 51 39 64 55 51 54 50 50 41 29 22 46 45 34 24 17 23 35 28 28 18 12 30
42 34 29 26 3 342 346 13 43 49 43 33 31 29 28 32 44 76 96 62 38 48 46 39 38 36 31 24 21 28 26 26 38 35 25 20 32 35 29 24 21 22 33
59 37 10 355 343 324 322 312 348 33 38 34 42 49 46 59 69 58 60 80 51 59 50 49 42 35 30 28 25 34 26 23 28 38 28 26 32 32 25 25 23 22 21
14 349 348 12 358 346 346 339 325 30 28 31 30 50 54 65 76 54 68 66 59 59 50 50 42 34 29 20 24 29 25 17 25 40 33 25 25 31 28 23 25 23 18
343 351 347 349 346 351 355 17 43 18 7 4 11 28 46 49 53 31 39 340 118 73 58 41 38 31 18 17 30 23 17 1 29 41 39 25 22 27 26 27 25 20 14
330 324 318 335 347 336 30 41 12 343 327 352 11 14 52 67 77 29 27 20 23 114 67 56 33 28 20 15 3 350 344 343 0 33 41 37 24 27 23 24 24 18 15
316 325 337 341 354 6 29 3 352 346 328 348 3 20 80 53 26 3 11 30 19 80 69 47 17 334 340 335 322 339 347 356 7 33 39 33 26 21 26 20 21 16 16
290 325 340 343 248 336 331 337 351 12 335 4 2 26 60 32 15 357 5 13 15 21 120 356 336 328 318 324 340 358 7 12 21 58 37 27 27 24 25 21 24 20 18
293 324 342 332 321 327 37 352 318 331 344 330 357 23 43 10 343 341 350 358 2 341 347 317 319 344 347 348 359 1 9 17 43 59 37 21 21 24 24 25 24 18 14
286 323 344 358 325 326 278 324 247 357 359 334 345 344 332 327 324 334 335 348 340 347 336 334 332 355 4 4 360 3 7 15 31 36 26 14 15 20 24 30 24 16 18
287 337 307 338 330 328 286 354 301 342 338 305 326 327 320 322 313 327 333 331 335 327 334 336 339 356 6 0 0 0 3 9 25 25 14 4 1 4 5 30 26 15 12
277 305 311 292 326 311 347 288 289 298 295 307 322 307 294 315 298 311 319 331 314 324 323 322 331 349 357 355 355 356 359 1 15 25 6 357 2 355 20 16 27 18 7
262 293 307 299 305 293 302 348 299 279 275 282 280 299 311 289 289 303 303 314 301 300 308 308 317 330 340 346 348 351 354 357 25 36 355 355 359 7 10 10 15 24 5